Вернуться в каталог

STARLINK-31192

АктивенСвязьVLEO
NORAD 58794·PAYLOAD·🇺🇸 United States

Запущен Jan 15, 2024 с Cape Canaveral Space Force Station

Loading…

Ближайшие Пролёты (ближайшие 24 часа)

TLE

СвежийSource: CelesTrak SupGP

Эпоха: Sep 15, 2026, 02:00 UTC

1 58794C 24012H   26258.08381944 -.00036458  00000+0 -13206-2 0  2581
2 58794  42.9997 175.9742 0001309 272.9275 226.8750 15.27594529    17

Отслеживайте STARLINK-31192 в реальном времени с AllMySat

Download on the App Store